This demonstration page uses our WeatherBlox Daily Observations layout. Learn more.

Left ArrowRight Arrow

41.86663, -103.66717

Hourly Observations for March 6, 2016

Temp ( °F °C ) Dew Point ( °F °C ) Humidity (%) Winds ( mph kmh ) Pressure ( in mb ) Visibility ( mi km ) Precip ( " mm )
12:53 am 00:53 Clear 32 undefined 22 -5.6 66 66 N N/A 29.78 1008 10 16 N/A
1:53 am 01:53 Clear 33 0.6 22 -5.6 64 64 N N/A 29.77 1008 10 16 N/A
2:53 am 02:53 Clear 30 -1.1 21 -6.1 69 69 ENE 3 6 29.75 1007 10 16 N/A
3:53 am 03:53 Clear 32 undefined 22 -5.6 66 66 NNE 9 15 29.72 1007 10 16 N/A
4:53 am 04:53 Clear 26 -3.3 20 -6.7 78 78 N 6 9 29.75 1008 10 16 N/A
5:53 am 05:53 Clear 30 -1.1 19 -7.2 64 64 WNW 6 9 29.75 1008 10 16 N/A
6:53 am 06:53 Sunny 30 -1.1 20 -6.7 66 66 NW 5 7 29.76 1008 10 16 N/A
7:53 am 07:53 Sunny 42 5.6 23 -5 47 47 N N/A 29.73 1007 10 16 N/A
8:53 am 08:53 Sunny 52 11.1 23 -5 32 32 NW 9 15 29.70 1006 10 16 N/A
9:53 am 09:53 Sunny 60 15.6 24 -4.4 25 25 WNW 6 9 29.66 1005 10 16 N/A
10:53 am 10:53 Sunny 66 18.9 23 -5 19 19 VRB 7 11 29.63 1003 10 16 N/A
11:53 am 11:53 Sunny 70 21.1 20 -6.7 15 15 WNW 13 20 29.59 1002 10 16 N/A
12:53 pm 12:53 Sunny 72 22.2 20 -6.7 14 14 N N/A 29.55 1001 10 16 N/A
1:53 pm 13:53 Sunny 72 22.2 21 -6.1 15 15 VRB 3 6 29.50 999 10 16 N/A
2:53 pm 14:53 Partly Cloudy 72 22.2 20 -6.7 14 14 N N/A 29.49 999 10 16 N/A
3:53 pm 15:53 Mostly Sunny 72 22.2 20 -6.7 14 14 SSW 6 9 29.47 998 10 16 N/A
4:53 pm 16:53 Mostly Cloudy 66 18.9 23 -5 19 19 SE 7 11 29.49 999 10 16 N/A
5:53 pm 17:53 Mostly Clear 62 16.7 22 -5.6 21 21 SE 8 13 29.49 999 10 16 N/A
6:53 pm 18:53 Clear 57 13.9 23 -5 27 27 ESE 8 13 29.50 999 10 16 N/A
7:53 pm 19:53 Mostly Cloudy 57 13.9 32 undefined 39 39 NW 12 19 29.50 999 10 16 N/A
8:53 pm 20:53 Partly Cloudy 51 10.6 32 undefined 48 48 WNW 5 7 29.50 999 10 16 N/A
9:53 pm 21:53 Mostly Cloudy 48 8.9 32 undefined 54 54 W 6 9 29.48 998 10 16 N/A
10:53 pm 22:53 Cloudy 47 8.3 32 undefined 56 56 NNE 3 6 29.46 998 10 16 N/A
11:53 pm 23:53 Mostly Cloudy 46 7.8 32 undefined 58 58 NNE 5 7 29.44 997 10 16 N/A

Powered by AerisWeather